Regional Weather Roundup
Issued by NWS

Home | Current Version | Previous Version | Text Only | Print | Product List | Glossary On
Versions: 1 2 3 4 5 6 7 8 9 10 11 12 13 14 15 16 17 18 19 20 21 22 23 24 25 26 27 28 29 30 31 32 33 34 35 36 37 38 39 40 41 42 43 44 45 46 47 48 49 50
000
ASUS44 KLIX 030418
RWRLA
LOUISIANA WEATHER ROUNDUP
NATIONAL WEATHER SERVICE NEW ORLEANS LA
1100 PM CDT TUE SEP 02 2014

NOTE: "FAIR" INDICATES FEW OR NO CLOUDS BELOW 12,000 FEET WITH NO
      SIGNIFICANT WEATHER AND/OR OBSTRUCTIONS TO VISIBILITY.
      SKY/WX - SKY CONDITION AND SIGNIFICANT WEATHER.
      TMP - AIR TEMPERATURE.    DP   - DEWPOINT TEMPERATURE.
      RH  - RELATIVE HUMIDITY.  PRES - PRESSURE.
      HX  - HEAT INDEX.         WCI  - WIND CHILL INDEX.

*  THESE STATIONS ARE NOT NWS OR FAA STATIONS AND ARE NOT UNDER
   NWS QUALITY CONTROL.

LAZ040-048-061>063-065-066-069-030500-
SOUTHEAST LOUISIANA

CITY           SKY/WX    TMP DP  RH WIND       PRES   REMARKS
N.O. AUDUBON     N/A     76  75  98 MISG        N/A
N.O. INTL ARPT TSTM      75  71  87 N12       30.08S FOG
N.O. LAKEFRONT LGT RAIN  76  71  85 N21       30.09F
N.O. DOWNTOWN* CLOUDY    75  70  83 N3        30.08F
SLIDELL        TSTM      74  71  91 CALM      30.08S
BATON ROUGE    CLOUDY    75  72  90 E14       30.01F
BOOTHVILLE     PTCLDY    80  77  90 CALM      30.06R
BELLE CHASSE   CLOUDY    77  70  79 N6        30.07R THUNDER
BOGALUSA*        N/A     74  71  88 S5        30.05F
GALLIANO*      NOT AVBL
NEW ROADS*     MOCLDY    75  73  96 SE9       30.01S
GONZALES*      FAIR      74  74 100 E5        30.03F
HAMMOND*       LGT RAIN  73  70  88 E10       30.05F
HOUMA*         CLOUDY    78  72  80 N12G22    30.06S
PORT FOURCHON* CLEAR     84  73  70 NE3       30.06S

$$

LAZ041-044-053-054-030500-
SOUTHWEST LOUISIANA

CITY           SKY/WX    TMP DP  RH WIND       PRES   REMARKS
LAKE CHARLES   PTCLDY    80  77  90 E3        29.99S
LAFAYETTE      CLOUDY    77  73  87 SE3       30.01F
PATTERSON      CLOUDY    79  75  89 E10       30.04F
SALT POINT       N/A     83  79  88 CALM      30.02F
NEW IBERIA     CLOUDY    78  73  84 SE6       30.01F
CHENAULT AIRPK MOCLDY    78  75  90 CALM      30.01R

$$

LAZ027-028-030500-
CENTRAL LOUISIANA

CITY           SKY/WX    TMP DP  RH WIND       PRES   REMARKS
FORT POLK      CLOUDY    73  72  96 NE6       30.02R
ALEXANDRIA INT CLOUDY    75  74  96 SE5       30.00F
ALEXANDRIA     CLOUDY    76  73  91 CALM      30.03R

$$

LAZ001-002-030500-
NORTHWEST LOUISIANA

CITY           SKY/WX    TMP DP  RH WIND       PRES   REMARKS
SHREVEPORT     PTCLDY    75  72  90 S3        29.98S
BARKSDALE AFB  CLEAR     73  72  99 E5        29.99S
DTN SHREVEPORT CLEAR     75  73  93 S6        29.99S

$$

LAZ014-016-030500-
NORTHEAST LOUISIANA

CITY           SKY/WX    TMP DP  RH WIND       PRES   REMARKS
MONROE         CLOUDY    73  71  93 CALM      30.01R
TALLULAH       CLOUDY    73  71  93 S6        29.99F

$$



USA.gov is the U.S. government's official web portal to all federal, state and local government web resources and services.